Location: Владивосток
(43.1151°N, 131.8856°E)
Time: 15:40:22
(UTC+10:00)

SEEDS - Pass Details

Date: 30 April 2024
Orbit: 551 x 562 km, 97.7° (Epoch: 19 May)

Event Time Altitude Azimuth Distance (km) Brightness Sun altitude
Rises 04:23:18 0° 25° (NNE) 2,737 ? -17.1°
Reaches altitude 10° 04:25:46 10° 40° (NE) 1,837 ? -16.8°
Maximum altitude 04:29:01 24° 95° (E) 1,165 ? -16.3°
Drops below altitude 10° 04:32:16 10° 150° (SSE) 1,825 ? -15.9°
Enters shadow 04:34:34 - 164° (SSE) 2,670 ? -15.5°
